[[{"header":{"parameterUnit":"m.s-1","parameterCategory":2,"la1":30.2991,"la2":30.254,"lo1":-89.0895,"lo2":-89.0444,"dy":0.0017,"dx":0.0017,"nx":28,"ny":28,"refTime":"2024-07-17T03:00:00:Z","depth":"0","parameterNumber":2,"parameterNumberName":"U-component_of_CURRENTS"},"data":[0,0,0,0,0,0,0,0,0,0,0,0,0,0,0,0,0,0,0,0,0,0,0,0,0,0,0,0,0,0,0,0,0,0,0,0,0,0,0,0,0,0,0,0,0,0,0,0,0,0,0,0,0,0,0,0,0,0,-0.0968,-0.0968,0,-0.1015,-0.1016,-0.1016,-0.0965,-0.0963,-0.0961,-0.0959,-0.0959,-0.0961,-0.0962,0,0,0,0,0,0,0,0,0,0,0,0,0,-0.0997,-0.0996,-0.0968,-0.0968,-0.0969,-0.1015,-0.1016,-0.1016,-0.0965,-0.0963,-0.0961,-0.0958,-0.0958,-0.096,-0.0962,0,0,0,0,0,0,0,0,0,0,0,0,0,-0.1008,-0.0995,-0.0968,-0.0949,-0.0948,-0.1015,-0.1016,-0.1017,-0.0966,-0.0963,-0.096,-0.0957,-0.0957,-0.096,-0.0963,-0.1039,0,0,-0.0971,-0.0972,0,0,0,0,0,0,0,0,-0.1007,-0.1007,-0.0951,-0.095,-0.0949,-0.0981,-0.1026,-0.1022,-0.0967,-0.0959,-0.0959,-0.0956,-0.0964,-0.0966,-0.0982,-0.1038,-0.1038,-0.0971,-0.0973,-0.0974,-0.0975,0,0,0,0,0,0,0,-0.1006,-0.1006,-0.0986,-0.0952,-0.0951,-0.0995,-0.0991,-0.1026,-0.0977,-0.096,-0.0956,-0.0962,-0.0963,-0.098,-0.0982,-0.1038,-0.0971,-0.0974,-0.0975,-0.0976,-0.1105,-0.1107,0,0,0,0,0,0,-0.0995,-0.1004,-0.0985,-0.0988,-0.0972,-0.0996,-0.0992,-0.0974,-0.0977,-0.0975,-0.0965,-0.096,-0.0977,-0.0979,-0.0981,-0.1021,-0.0974,-0.0977,-0.0978,-0.1103,-0.1105,-0.1107,0,0,0,0,0,0,-0.0995,-0.0992,-0.0983,-0.0999,-0.1,-0.0997,-0.0978,-0.0976,-0.0972,-0.0982,-0.0978,-0.0958,-0.0974,-0.0978,-0.1012,-0.1022,-0.0978,-0.098,-0.1101,-0.1104,-0.1106,-0.1133,0,0,0,0,0,0,-0.0995,-0.0991,-0.0975,-0.0997,-0.0999,-0.1005,-0.0981,-0.0979,-0.0982,-0.0975,-0.0977,-0.0974,-0.0972,-0.1008,-0.1015,-0.1025,-0.0983,-0.1099,-0.1102,-0.1106,-0.113,-0.1137,-0.1142,0,0,0,0,0,-0.0996,-0.0982,-0.0973,-0.0971,-0.0975,-0.1005,-0.1011,-0.1,-0.0984,-0.0985,-0.0999,-0.0973,-0.1033,-0.1013,-0.102,-0.1031,-0.1097,-0.1101,-0.1105,-0.1128,-0.1135,-0.1142,0,0,0,0,0,0,-0.098,-0.0976,-0.0967,-0.0948,-0.0968,-0.0996,-0.0997,-0.1002,-0.1017,-0.1005,-0.1009,-0.101,-0.1047,-0.1045,-0.1023,-0.108,-0.1057,-0.1063,-0.1071,-0.1079,-0.1085,-0.1086,-0.0985,0,0,0,0,0,-0.0973,-0.0959,-0.0973,-0.096,-0.0964,-0.0983,-0.0994,-0.0994,-0.1014,-0.1015,-0.1027,-0.1044,-0.1078,-0.1079,-0.1111,-0.1147,-0.1126,-0.1156,-0.1162,-0.1167,-0.1175,-0.1184,-0.119,-0.1121,-0.112,-0.112,0,0,-0.0969,-0.0961,-0.0956,-0.0957,-0.0967,-0.099,-0.098,-0.0994,-0.102,-0.1018,-0.1052,-0.1075,-0.1098,-0.1139,-0.1152,-0.1128,-0.1169,-0.1172,-0.1176,-0.1182,-0.1188,-0.1195,-0.1201,-0.1123,-0.1123,-0.1122,0,0,-0.0954,-0.094,-0.0924,-0.0945,-0.0958,-0.0987,-0.0989,-0.102,-0.1029,-0.1074,-0.1088,-0.1125,-0.1157,-0.1189,-0.1205,-0.1269,-0.1214,-0.1262,-0.1277,-0.1285,-0.129,-0.1294,-0.1235,-0.1234,-0.1248,-0.1248,-0.1248,0,-0.0946,-0.0926,-0.0931,-0.0931,-0.0952,-0.0984,-0.0997,-0.1033,-0.1077,-0.1096,-0.1077,-0.116,-0.1186,-0.1245,-0.127,-0.1281,-0.1247,-0.1242,-0.129,-0.1294,-0.1298,-0.1237,-0.1236,-0.125,-0.125,-0.125,-0.125,0,-0.0935,-0.0921,-0.092,-0.0931,-0.0959,-0.0981,-0.1031,-0.1067,-0.1086,-0.1116,-0.1169,-0.1213,-0.125,-0.1271,-0.1292,-0.1343,-0.1294,-0.1306,-0.1264,-0.1307,-0.1239,-0.1237,-0.1253,-0.1252,-0.1252,-0.1251,0,0,-0.0918,-0.091,-0.0909,-0.091,-0.0962,-0.0985,-0.1044,-0.1103,-0.1127,-0.1172,-0.1192,-0.1286,-0.1294,-0.1317,-0.1345,-0.1361,-0.1365,-0.1342,-0.1342,-0.1268,-0.132,-0.1147,-0.1127,-0.1374,-0.1375,-0.1376,-0.1245,0,-0.0909,-0.0897,-0.0908,-0.0933,-0.0943,-0.0998,-0.1045,-0.1105,-0.1148,-0.1184,-0.1233,-0.1268,-0.1314,-0.1319,-0.1354,-0.1371,-0.1368,-0.1396,-0.1304,-0.1301,-0.1131,-0.1124,-0.1046,-0.0913,-0.1243,-0.1243,-0.1242,0,-0.0898,-0.0898,-0.0901,-0.0921,-0.0928,-0.096,-0.1037,-0.1079,-0.1152,-0.1171,-0.1218,-0.1247,-0.1305,-0.1321,-0.1352,-0.1357,-0.135,-0.1349,-0.1344,-0.1176,-0.1125,-0.0935,-0.0896,-0.0974,-0.1239,-0.1239,-0.1239,0,-0.0891,-0.0892,-0.0893,-0.0909,-0.0949,-0.0967,-0.0998,-0.1073,-0.1099,-0.1159,-0.1158,-0.1227,-0.1221,-0.1263,-0.1272,-0.1309,-0.1255,-0.1301,-0.113,-0.1114,-0.1029,-0.1004,-0.1046,-0.1317,-0.1317,-0.1317,-0.1318,0,-0.0884,-0.0879,-0.0885,-0.0896,-0.0912,-0.094,-0.0967,-0.1013,-0.105,-0.1064,-0.114,-0.1138,-0.1208,-0.119,-0.123,-0.1133,-0.1214,-0.1116,-0.1076,-0.1029,-0.1007,-0.1054,-0.1141,-0.1312,-0.1313,-0.1314,-0.1315,0,-0.0856,-0.0862,-0.0869,-0.0898,-0.0904,-0.0916,-0.0934,-0.095,-0.0987,-0.0999,-0.1008,-0.1043,-0.1014,-0.104,-0.1052,-0.102,-0.0976,-0.094,-0.0834,-0.0783,-0.0686,-0.0776,-0.0743,-0.0711,-0.0726,-0.0721,-0.0717,0,-0.083,-0.0829,-0.0862,-0.087,-0.0876,-0.0889,-0.0895,-0.0926,-0.0933,-0.094,-0.093,-0.0893,-0.0866,-0.0761,-0.0714,-0.0659,-0.0796,-0.0525,-0.0607,-0.0645,-0.0721,-0.0803,-0.0787,-0.0496,-0.049,-0.0485,-0.0482,0,-0.0788,-0.0802,-0.0814,-0.0835,-0.0842,-0.0841,-0.0841,-0.0835,-0.0857,-0.0848,-0.0798,-0.0763,-0.0637,-0.0512,-0.0389,-0.0378,-0.0537,-0.0421,-0.0532,-0.0586,-0.0615,-0.0573,-0.0581,-0.044,-0.0444,-0.0447,-0.045,-0.0451,-0.0751,-0.075,-0.0769,-0.0785,-0.0795,-0.0777,-0.0748,-0.074,-0.0711,-0.0654,-0.0655,-0.0538,-0.04,-0.0214,-0.0192,-0.0109,-0.0229,-0.0142,-0.0254,-0.0336,-0.0303,-0.0159,0.0069,0.0067,0.0066,0.0065,0.0065,0,-0.0692,-0.0695,-0.0709,-0.0719,-0.0708,-0.0727,-0.0697,-0.0647,-0.058,-0.0501,-0.0428,-0.0234,-0.0115,-0.0053,0.0046,0.0026,-0.0031,-0.0036,-0.0223,-0.0218,-0.0144,-0.0133,0.0148,0.0148,0.0148,0.0148,0.0148,0.0148,-0.0658,-0.0645,-0.0656,-0.0626,-0.0629,-0.0575,-0.0543,-0.0472,-0.0392,-0.0215,-0.0068,0.0034,0.0066,-0.0107,-0.0143,-0.0112,-0.0233,-0.0189,-0.0272,-0.034,-0.0363,-0.0385,-0.0397,-0.0176,-0.0177,-0.0297,-0.0299,-0.03]},{"header":{"parameterUnit":"m.s-1","parameterCategory":2,"la1":30.2991,"la2":30.254,"lo1":-89.0895,"lo2":-89.0444,"dy":0.0017,"dx":0.0017,"nx":28,"ny":28,"refTime":"2024-07-17T03:00:00:Z","depth":"0","parameterNumber":3,"parameterNumberName":"V-component_of_CURRENTS"},"data":[0,0,0,0,0,0,0,0,0,0,0,0,0,0,0,0,0,0,0,0,0,0,0,0,0,0,0,0,0,0,0,0,0,0,0,0,0,0,0,0,0,0,0,0,0,0,0,0,0,0,0,0,0,0,0,0,0,0,-0.021,-0.021,0,-0.0206,-0.0206,-0.0205,-0.0147,-0.0146,-0.0145,-0.0143,-0.0099,-0.0099,-0.0099,0,0,0,0,0,0,0,0,0,0,0,0,0,-0.0193,-0.0194,-0.021,-0.021,-0.021,-0.0206,-0.0206,-0.0205,-0.0148,-0.0146,-0.0144,-0.0143,-0.0099,-0.0099,-0.0099,0,0,0,0,0,0,0,0,0,0,0,0,0,-0.0196,-0.0194,-0.021,-0.0181,-0.0178,-0.0206,-0.0206,-0.0205,-0.0148,-0.0146,-0.0144,-0.0142,-0.0099,-0.0099,-0.0099,-0.0144,0,0,-0.01,-0.01,0,0,0,0,0,0,0,0,-0.0196,-0.0196,-0.0185,-0.0183,-0.018,-0.0175,-0.0183,-0.0183,-0.0149,-0.0159,-0.0143,-0.0141,-0.0122,-0.0121,-0.0125,-0.0142,-0.014,-0.01,-0.01,-0.01,-0.01,0,0,0,0,0,0,0,-0.0195,-0.0196,-0.0208,-0.0185,-0.0182,-0.0177,-0.0174,-0.0183,-0.0152,-0.0158,-0.0154,-0.0155,-0.012,-0.0125,-0.0123,-0.014,-0.01,-0.01,-0.01,-0.0101,-0.0175,-0.0177,0,0,0,0,0,0,-0.0198,-0.0196,-0.0208,-0.0208,-0.0183,-0.0178,-0.0176,-0.0179,-0.0153,-0.0147,-0.0156,-0.0152,-0.0125,-0.0123,-0.0121,-0.0174,-0.01,-0.0101,-0.0101,-0.0173,-0.0176,-0.0178,0,0,0,0,0,0,-0.0198,-0.0199,-0.0208,-0.0202,-0.0202,-0.0181,-0.0185,-0.018,-0.0172,-0.0152,-0.0145,-0.0152,-0.0124,-0.0121,-0.0138,-0.0171,-0.0101,-0.0101,-0.0171,-0.0174,-0.0177,-0.0278,0,0,0,0,0,0,-0.0197,-0.0199,-0.0207,-0.0202,-0.0203,-0.0232,-0.0187,-0.0181,-0.0176,-0.017,-0.0147,-0.0141,-0.0122,-0.0138,-0.0139,-0.017,-0.0101,-0.0169,-0.0173,-0.0176,-0.0273,-0.0284,-0.0294,0,0,0,0,0,-0.0197,-0.0225,-0.0208,-0.0209,-0.0213,-0.0233,-0.0234,-0.0211,-0.0178,-0.0192,-0.0176,-0.0141,-0.0159,-0.0141,-0.014,-0.0173,-0.0167,-0.0171,-0.0175,-0.0268,-0.0282,-0.0294,0,0,0,0,0,0,-0.0223,-0.0222,-0.0202,-0.0227,-0.0229,-0.0223,-0.0235,-0.0215,-0.0214,-0.02,-0.0171,-0.0167,-0.0193,-0.0173,-0.0153,-0.0204,-0.0155,-0.016,-0.0226,-0.0239,-0.0249,-0.0256,-0.0101,0,0,0,0,0,-0.0233,-0.0251,-0.0244,-0.0264,-0.0265,-0.0247,-0.0251,-0.0235,-0.0231,-0.0226,-0.0216,-0.0205,-0.0215,-0.0216,-0.022,-0.0255,-0.0213,-0.0273,-0.0284,-0.0293,-0.0299,-0.0295,-0.0306,-0.0191,-0.0191,-0.0191,0,0,-0.025,-0.025,-0.026,-0.0271,-0.0265,-0.0288,-0.0244,-0.0254,-0.0278,-0.0225,-0.0257,-0.0245,-0.0233,-0.0271,-0.028,-0.0255,-0.0297,-0.0298,-0.0306,-0.0307,-0.0301,-0.0312,-0.0322,-0.0194,-0.0193,-0.0193,0,0,-0.0289,-0.0288,-0.0309,-0.0318,-0.0317,-0.0318,-0.0321,-0.0319,-0.032,-0.0353,-0.0321,-0.0338,-0.0346,-0.0355,-0.0357,-0.0433,-0.0355,-0.042,-0.0481,-0.0478,-0.0488,-0.0495,-0.0424,-0.0425,-0.0425,-0.0425,-0.0425,0,-0.0302,-0.033,-0.0321,-0.0343,-0.0359,-0.0334,-0.0363,-0.0377,-0.0384,-0.0399,-0.0374,-0.0401,-0.0395,-0.0441,-0.0466,-0.0459,-0.041,-0.0433,-0.0492,-0.0499,-0.0505,-0.0431,-0.043,-0.043,-0.043,-0.0429,-0.0429,0,-0.0348,-0.0375,-0.0393,-0.0413,-0.0433,-0.0459,-0.0471,-0.0492,-0.0488,-0.0498,-0.0536,-0.0535,-0.0546,-0.0552,-0.0534,-0.0578,-0.0511,-0.0506,-0.0458,-0.0523,-0.0439,-0.0437,-0.0438,-0.0436,-0.0435,-0.0433,0,0,-0.0364,-0.0415,-0.042,-0.0443,-0.0472,-0.0493,-0.0544,-0.0586,-0.0606,-0.0629,-0.0665,-0.0702,-0.0681,-0.0682,-0.066,-0.0662,-0.0662,-0.0602,-0.0599,-0.0528,-0.0592,-0.0535,-0.0525,-0.0658,-0.0659,-0.066,-0.0504,0,-0.0398,-0.0456,-0.0477,-0.0544,-0.0576,-0.0588,-0.0639,-0.0671,-0.0686,-0.0719,-0.0733,-0.0754,-0.0736,-0.073,-0.0741,-0.0703,-0.0664,-0.07,-0.0543,-0.0537,-0.0478,-0.0526,-0.0438,-0.0292,-0.0501,-0.05,-0.05,0,-0.0425,-0.0469,-0.0534,-0.0606,-0.0619,-0.0659,-0.0714,-0.0755,-0.0797,-0.0803,-0.083,-0.082,-0.0861,-0.081,-0.0779,-0.0796,-0.0693,-0.064,-0.0633,-0.0546,-0.0479,-0.0269,-0.0279,-0.0067,-0.0495,-0.0496,-0.0496,0,-0.0425,-0.0507,-0.0563,-0.0587,-0.0663,-0.0698,-0.0738,-0.078,-0.0809,-0.0847,-0.0852,-0.0893,-0.0891,-0.0843,-0.0774,-0.0761,-0.0697,-0.0664,-0.0492,-0.0482,-0.0362,-0.0343,-0.0152,-0.0581,-0.0581,-0.0582,-0.0582,0,-0.0449,-0.0494,-0.0568,-0.0601,-0.0673,-0.0712,-0.0771,-0.0805,-0.0841,-0.087,-0.089,-0.0901,-0.0896,-0.0867,-0.0787,-0.066,-0.0708,-0.0502,-0.0458,-0.0391,-0.0377,-0.0151,-0.0108,-0.0576,-0.0577,-0.0578,-0.0579,0,-0.043,-0.0479,-0.0552,-0.0643,-0.0674,-0.0719,-0.0793,-0.0826,-0.085,-0.088,-0.0892,-0.0912,-0.0895,-0.0858,-0.0766,-0.0652,-0.0426,-0.0459,-0.0355,-0.0304,0.0047,0.0077,0.0243,0.0357,-0.0239,-0.0237,-0.0235,0,-0.0425,-0.0458,-0.0568,-0.0615,-0.066,-0.073,-0.0776,-0.0828,-0.0851,-0.088,-0.0892,-0.0886,-0.0889,-0.0761,-0.0617,-0.0462,-0.032,-0.0185,-0.0162,0.0077,0.0144,0.0149,0.0234,-0.0007,-0.0004,-0.0001,0.0001,0,-0.0421,-0.0454,-0.0515,-0.0616,-0.0682,-0.0746,-0.0808,-0.0824,-0.0866,-0.0878,-0.0887,-0.0894,-0.0788,-0.064,-0.0436,-0.0301,-0.0046,-0.0117,0.0089,0.0297,0.0355,0.0484,-0.0073,0.0026,0.0024,0.0022,0.002,0.0019,-0.0407,-0.045,-0.0533,-0.0626,-0.0691,-0.0747,-0.078,-0.0813,-0.084,-0.0831,-0.0863,-0.0835,-0.0579,-0.0334,-0.0188,0.0267,0.0159,0.0466,0.0481,0.0465,0.0568,0.0085,0.0239,0.0237,0.0236,0.0235,0.0235,0,-0.0406,-0.0462,-0.0543,-0.065,-0.0704,-0.0742,-0.0791,-0.0789,-0.0789,-0.0773,-0.077,-0.0557,-0.0229,0.0069,0.0619,0.0873,0.0918,0.1003,0.1061,0.1118,0.0691,0.0697,0.1004,0.1004,0.1003,0.1003,0.1003,0.1003,-0.0409,-0.049,-0.0546,-0.0643,-0.0695,-0.0742,-0.0754,-0.0725,-0.07,-0.0594,-0.0508,-0.0465,0.0035,0.0786,0.1383,0.1445,0.1626,0.1558,0.1638,0.1389,0.1341,0.1296,0.1318,0.175,0.1751,0.211,0.2113,0.2116]}],[{"header":{"parameterUnit":"m.s-1","parameterCategory":2,"la1":30.2991,"la2":30.254,"lo1":-89.0895,"lo2":-89.0444,"dy":0.0017,"dx":0.0017,"nx":28,"ny":28,"refTime":"2024-07-17T03:00:00:Z","depth":"2","parameterNumber":2,"parameterNumberName":"U-component_of_CURRENTS"},"data":[0,0,0,0,0,0,0,0,0,0,0,0,0,0,0,0,0,0,0,0,0,0,0,0,0,0,0,0,0,0,0,0,0,0,0,0,0,0,0,0,0,0,0,0,0,0,0,0,0,0,0,0,0,0,0,0,0,0,-0.2797,-0.2799,0,-0.2907,-0.2907,-0.2907,-0.2835,-0.2832,-0.283,-0.2828,-0.2816,-0.2818,-0.282,0,0,0,0,0,0,0,0,0,0,0,0,0,-0.2628,-0.263,-0.2796,-0.2799,-0.2801,-0.2907,-0.2907,-0.2908,-0.2835,-0.2832,-0.2829,-0.2827,-0.2815,-0.2818,-0.282,0,0,0,0,0,0,0,0,0,0,0,0,0,-0.2706,-0.263,-0.2796,-0.2785,-0.2786,-0.2906,-0.2907,-0.2908,-0.2836,-0.2832,-0.2829,-0.2825,-0.2815,-0.2817,-0.282,-0.291,0,0,-0.2829,-0.283,0,0,0,0,0,0,0,0,-0.2701,-0.271,-0.2785,-0.2786,-0.2788,-0.2862,-0.2844,-0.2906,-0.2837,-0.2806,-0.2828,-0.2823,-0.283,-0.2831,-0.2847,-0.2909,-0.2909,-0.2829,-0.2831,-0.2832,-0.2833,0,0,0,0,0,0,0,-0.2696,-0.2706,-0.2829,-0.2788,-0.279,-0.2812,-0.2816,-0.2856,-0.2826,-0.2808,-0.2806,-0.2836,-0.2828,-0.2844,-0.2846,-0.2908,-0.2829,-0.2832,-0.2834,-0.2835,-0.2903,-0.2903,0,0,0,0,0,0,-0.2702,-0.2701,-0.2826,-0.2834,-0.2747,-0.2818,-0.2823,-0.2834,-0.2828,-0.2828,-0.2839,-0.2832,-0.2841,-0.2843,-0.2845,-0.2835,-0.2832,-0.2835,-0.2837,-0.2903,-0.2903,-0.2903,0,0,0,0,0,0,-0.2698,-0.2712,-0.2822,-0.2779,-0.2796,-0.2825,-0.2837,-0.2838,-0.2831,-0.2855,-0.2849,-0.2829,-0.2838,-0.2841,-0.2851,-0.2838,-0.2836,-0.2839,-0.2903,-0.2903,-0.2903,-0.289,0,0,0,0,0,0,-0.2692,-0.2709,-0.2719,-0.2779,-0.2799,-0.2866,-0.2842,-0.2843,-0.2862,-0.2853,-0.2847,-0.2843,-0.2836,-0.2846,-0.2854,-0.2842,-0.2841,-0.2903,-0.2903,-0.2903,-0.289,-0.2889,-0.2889,0,0,0,0,0,-0.2685,-0.272,-0.2718,-0.2735,-0.2811,-0.2867,-0.2877,-0.288,-0.2865,-0.2859,-0.2854,-0.2842,-0.2851,-0.285,-0.2858,-0.2847,-0.2903,-0.2903,-0.2903,-0.289,-0.2889,-0.2889,0,0,0,0,0,0,-0.2639,-0.2719,-0.2717,-0.2768,-0.2801,-0.2858,-0.288,-0.2883,-0.2881,-0.2872,-0.2863,-0.2861,-0.2862,-0.2867,-0.2866,-0.2866,-0.2869,-0.2871,-0.2856,-0.2855,-0.2855,-0.283,-0.2844,0,0,0,0,0,-0.2643,-0.2678,-0.2746,-0.2772,-0.2803,-0.2838,-0.2865,-0.287,-0.2889,-0.2883,-0.2878,-0.2876,-0.2881,-0.2874,-0.2886,-0.2905,-0.2875,-0.2897,-0.2896,-0.2896,-0.2881,-0.2865,-0.2861,-0.2904,-0.2904,-0.2904,0,0,-0.2619,-0.2679,-0.2687,-0.2765,-0.2796,-0.2827,-0.284,-0.2884,-0.2884,-0.2889,-0.2878,-0.2886,-0.2888,-0.2891,-0.289,-0.2885,-0.2857,-0.2896,-0.2895,-0.288,-0.2865,-0.2861,-0.2857,-0.2904,-0.2904,-0.2904,0,0,-0.2612,-0.2655,-0.2686,-0.2728,-0.2802,-0.2826,-0.2834,-0.2886,-0.2882,-0.2908,-0.289,-0.2882,-0.2912,-0.2885,-0.2883,-0.2893,-0.2863,-0.2901,-0.287,-0.2855,-0.2851,-0.2847,-0.2753,-0.2741,-0.289,-0.289,-0.289,0,-0.2577,-0.2635,-0.2698,-0.2748,-0.2778,-0.2816,-0.2839,-0.2858,-0.2891,-0.2875,-0.2895,-0.2889,-0.2902,-0.2865,-0.2868,-0.2888,-0.2856,-0.2872,-0.2853,-0.2849,-0.2845,-0.275,-0.2737,-0.2889,-0.2889,-0.2889,-0.2889,0,-0.2599,-0.2642,-0.267,-0.2728,-0.276,-0.2797,-0.284,-0.2839,-0.2853,-0.2855,-0.284,-0.2866,-0.2854,-0.2855,-0.2876,-0.2842,-0.2817,-0.2862,-0.2851,-0.284,-0.274,-0.2726,-0.2888,-0.2889,-0.2889,-0.2889,0,0,-0.2493,-0.2656,-0.2646,-0.2688,-0.2761,-0.2787,-0.2787,-0.2789,-0.2775,-0.2792,-0.2762,-0.2778,-0.2791,-0.279,-0.2804,-0.2785,-0.2734,-0.2818,-0.2817,-0.2714,-0.2643,-0.2471,-0.2439,-0.279,-0.2789,-0.2788,-0.2565,0,-0.2471,-0.2573,-0.2639,-0.2671,-0.2729,-0.2758,-0.2757,-0.2754,-0.2762,-0.2744,-0.2733,-0.2737,-0.2769,-0.2786,-0.277,-0.2761,-0.2707,-0.2786,-0.2677,-0.2672,-0.2515,-0.2422,-0.2326,-0.2108,-0.2552,-0.2549,-0.2548,0,-0.2432,-0.2532,-0.2586,-0.2688,-0.2706,-0.27,-0.2693,-0.2709,-0.2679,-0.2695,-0.267,-0.2693,-0.2652,-0.2721,-0.2636,-0.2691,-0.2665,-0.264,-0.2632,-0.2468,-0.2476,-0.2203,-0.2067,-0.2525,-0.2527,-0.2529,-0.253,0,-0.2334,-0.2459,-0.2506,-0.2541,-0.266,-0.264,-0.2662,-0.2653,-0.2651,-0.2651,-0.2641,-0.2622,-0.2603,-0.259,-0.2539,-0.2613,-0.2417,-0.2518,-0.2301,-0.2286,-0.2175,-0.2152,-0.2444,-0.2444,-0.2445,-0.2445,-0.2446,0,-0.2291,-0.2309,-0.2461,-0.2495,-0.2507,-0.2597,-0.2566,-0.2589,-0.2594,-0.2558,-0.2611,-0.2562,-0.2584,-0.2486,-0.248,-0.2288,-0.2362,-0.2241,-0.2212,-0.216,-0.2139,-0.2506,-0.2516,-0.2437,-0.2439,-0.244,-0.2442,0,-0.2147,-0.2262,-0.232,-0.2448,-0.2466,-0.2458,-0.2498,-0.2493,-0.252,-0.2472,-0.2475,-0.2468,-0.234,-0.2277,-0.2198,-0.2157,-0.2044,-0.1961,-0.1842,-0.1802,-0.1939,-0.1952,-0.1714,-0.1706,-0.1699,-0.1694,-0.1689,0,-0.2085,-0.211,-0.2237,-0.2263,-0.2303,-0.2323,-0.2336,-0.2415,-0.2414,-0.2389,-0.2353,-0.2232,-0.2108,-0.1857,-0.1767,-0.161,-0.1762,-0.1444,-0.1579,-0.1865,-0.1862,-0.1886,-0.1907,-0.141,-0.1403,-0.1398,-0.1394,0,-0.1952,-0.1977,-0.2046,-0.2115,-0.2139,-0.217,-0.2197,-0.2194,-0.2266,-0.2222,-0.2121,-0.2017,-0.1767,-0.1552,-0.1335,-0.1261,-0.1473,-0.1323,-0.1642,-0.161,-0.1561,-0.1565,-0.1599,-0.1345,-0.135,-0.1353,-0.1356,-0.1358,-0.1798,-0.1806,-0.1896,-0.1933,-0.1981,-0.1997,-0.1974,-0.2017,-0.1982,-0.1898,-0.1868,-0.1655,-0.1589,-0.119,-0.1043,-0.0917,-0.1056,-0.1074,-0.1099,-0.1128,-0.1133,-0.1075,-0.0764,-0.0765,-0.0766,-0.0767,-0.0768,0,-0.1646,-0.1669,-0.1714,-0.1789,-0.1807,-0.1849,-0.1869,-0.1832,-0.1757,-0.1685,-0.1545,-0.1255,-0.1059,-0.0957,-0.071,-0.0635,-0.071,-0.059,-0.076,-0.0805,-0.0846,-0.0848,-0.0397,-0.0396,-0.0394,-0.0393,0,0,-0.1576,-0.1577,-0.163,-0.1612,-0.1628,-0.1576,-0.1554,-0.1514,-0.1468,-0.1257,-0.1115,-0.1097,-0.1033,-0.0805,-0.0691,-0.0527,-0.0681,-0.0467,-0.0769,-0.1026,-0.1067,-0.1116,-0.1164,0,0,0,0,0]},{"header":{"parameterUnit":"m.s-1","parameterCategory":2,"la1":30.2991,"la2":30.254,"lo1":-89.0895,"lo2":-89.0444,"dy":0.0017,"dx":0.0017,"nx":28,"ny":28,"refTime":"2024-07-17T03:00:00:Z","depth":"2","parameterNumber":3,"parameterNumberName":"V-component_of_CURRENTS"},"data":[0,0,0,0,0,0,0,0,0,0,0,0,0,0,0,0,0,0,0,0,0,0,0,0,0,0,0,0,0,0,0,0,0,0,0,0,0,0,0,0,0,0,0,0,0,0,0,0,0,0,0,0,0,0,0,0,0,0,0.0384,0.0387,0,0.0651,0.0654,0.0657,0.0737,0.0736,0.0735,0.0734,0.0972,0.0979,0.0986,0,0,0,0,0,0,0,0,0,0,0,0,0,0.0106,0.0109,0.0384,0.0387,0.0391,0.0651,0.0654,0.0657,0.0737,0.0736,0.0734,0.0733,0.097,0.0978,0.0987,0,0,0,0,0,0,0,0,0,0,0,0,0,0.028,0.011,0.0383,0.0465,0.0476,0.065,0.0654,0.0658,0.0737,0.0736,0.0734,0.0733,0.0967,0.0977,0.0988,0.1084,0,0,0.1021,0.1026,0,0,0,0,0,0,0,0,0.027,0.029,0.045,0.046,0.0472,0.0663,0.0644,0.0801,0.0737,0.0633,0.0734,0.0732,0.087,0.0889,0.0936,0.1095,0.1105,0.1022,0.1029,0.1033,0.1036,0,0,0,0,0,0,0,0.0258,0.028,0.0485,0.0454,0.0468,0.0546,0.0567,0.0675,0.0752,0.0642,0.065,0.0687,0.0875,0.0926,0.0942,0.1109,0.1022,0.1031,0.1038,0.1042,0.1292,0.1292,0,0,0,0,0,0,0.0227,0.0268,0.0477,0.0494,0.037,0.0551,0.0575,0.06,0.0752,0.0776,0.0688,0.069,0.0908,0.093,0.0951,0.0995,0.1033,0.1043,0.105,0.1292,0.1292,0.1292,0,0,0,0,0,0,0.022,0.0243,0.0466,0.0391,0.0425,0.0557,0.0585,0.0606,0.0643,0.0788,0.081,0.0702,0.0907,0.0936,0.1037,0.1007,0.1048,0.1058,0.1292,0.1292,0.1292,0.1133,0,0,0,0,0,0,0.0211,0.0238,0.0254,0.0388,0.0428,0.0539,0.0587,0.0612,0.0672,0.0676,0.0808,0.083,0.0908,0.102,0.1048,0.1023,0.1067,0.1292,0.1292,0.1292,0.1138,0.1128,0.1119,0,0,0,0,0,0.0199,0.0225,0.0253,0.028,0.0442,0.0539,0.0565,0.0653,0.0673,0.0681,0.078,0.0825,0.1039,0.103,0.1062,0.104,0.1291,0.1292,0.1292,0.1143,0.113,0.112,0,0,0,0,0,0,0.0122,0.024,0.0273,0.0335,0.0414,0.0553,0.0591,0.0643,0.0731,0.074,0.0851,0.0881,0.0959,0.1031,0.1017,0.1113,0.1164,0.1171,0.1039,0.1029,0.1019,0.0984,0.1076,0,0,0,0,0,0.0111,0.0142,0.0268,0.0306,0.0348,0.0463,0.0518,0.0573,0.0673,0.0709,0.0799,0.0899,0.0992,0.1031,0.1135,0.1197,0.1226,0.1198,0.1188,0.1179,0.1173,0.1189,0.1178,0.1293,0.1293,0.1293,0,0,0.0088,0.0159,0.0176,0.0289,0.0363,0.0414,0.0489,0.0562,0.0597,0.0725,0.0792,0.0886,0.1009,0.1076,0.1113,0.1123,0.1158,0.1179,0.117,0.117,0.1187,0.1176,0.1165,0.1293,0.1293,0.1293,0,0,0.0053,0.012,0.0136,0.0198,0.0306,0.0379,0.0387,0.0513,0.0559,0.0653,0.074,0.0802,0.0962,0.1014,0.1069,0.1071,0.1122,0.1105,0.1011,0.1024,0.1014,0.1005,0.0997,0.0989,0.1079,0.1079,0.1079,0,0.0024,0.0066,0.0153,0.0189,0.0239,0.0346,0.0373,0.0444,0.0579,0.06,0.065,0.0826,0.0925,0.0974,0.098,0.1043,0.1062,0.1036,0.1006,0.0998,0.0992,0.0987,0.098,0.1071,0.1072,0.1073,0.1074,0,0.0006,0.0042,0.0057,0.0125,0.0181,0.0225,0.0332,0.037,0.044,0.0503,0.0576,0.0709,0.08,0.0829,0.0922,0.0917,0.0948,0.1,0.1019,0.097,0.0969,0.0964,0.106,0.1063,0.1065,0.1067,0,0,-0.0065,0.0025,0.0026,0.0047,0.0156,0.0199,0.0238,0.0302,0.0311,0.0412,0.0426,0.0566,0.0618,0.0685,0.0777,0.0785,0.0758,0.0868,0.0872,0.083,0.0772,0.0872,0.0877,0.0804,0.0803,0.0802,0.0777,0,-0.0105,-0.0078,-0.0013,0.0006,0.0038,0.0125,0.0155,0.0215,0.0279,0.0314,0.0402,0.0477,0.0569,0.0618,0.0636,0.0764,0.0745,0.0759,0.0854,0.0857,0.0927,0.0875,0.0821,0.0803,0.0773,0.0772,0.0771,0,-0.0138,-0.0112,-0.011,-0.0044,-0.0023,-0.0014,0.0029,0.008,0.0136,0.0192,0.0235,0.0334,0.0393,0.0482,0.0581,0.0592,0.0664,0.0728,0.073,0.0879,0.0949,0.0859,0.0796,0.0765,0.0765,0.0766,0.0766,0,-0.0229,-0.0173,-0.0184,-0.0161,-0.008,-0.0089,-0.0049,0.0006,0.0046,0.0101,0.0126,0.0209,0.0275,0.0366,0.0537,0.0561,0.0633,0.0681,0.0805,0.0812,0.0815,0.0825,0.0699,0.0699,0.07,0.07,0.07,0,-0.0282,-0.0282,-0.0242,-0.0247,-0.0261,-0.0174,-0.0186,-0.0136,-0.0077,-0.0056,0.0053,0.0085,0.0256,0.0342,0.0475,0.0637,0.058,0.0778,0.0814,0.0761,0.0766,0.0791,0.0802,0.0699,0.0699,0.0699,0.0699,0,-0.0369,-0.034,-0.0345,-0.031,-0.0306,-0.032,-0.026,-0.0254,-0.0189,-0.0162,-0.0138,-0.0013,0.0105,0.0258,0.0413,0.0569,0.0706,0.0761,0.0686,0.0717,0.0877,0.0881,0.0888,0.0891,0.0894,0.0896,0.0898,0,-0.0404,-0.0424,-0.0423,-0.0437,-0.0433,-0.0431,-0.042,-0.0332,-0.0305,-0.0221,-0.0208,-0.0104,-0.0016,0.0244,0.0527,0.0743,0.071,0.082,0.0875,0.0863,0.0897,0.0896,0.0896,0.0784,0.0785,0.0786,0.0787,0,-0.0469,-0.0488,-0.0502,-0.0538,-0.0553,-0.0538,-0.0515,-0.0508,-0.04,-0.0375,-0.0323,-0.0261,0.002,0.0283,0.0611,0.0726,0.08,0.0849,0.0824,0.0783,0.0775,0.0806,0.0807,0.0793,0.0793,0.0792,0.0792,0.0791,-0.0523,-0.0564,-0.0594,-0.0625,-0.0635,-0.0634,-0.0625,-0.0587,-0.0554,-0.0457,-0.0391,-0.021,0.007,0.0591,0.0705,0.0857,0.0925,0.0951,0.0944,0.0936,0.0967,0.0969,0.1026,0.1027,0.1027,0.1028,0.1028,0,-0.0567,-0.0612,-0.0659,-0.0689,-0.0708,-0.0691,-0.0664,-0.0638,-0.0615,-0.0442,-0.0352,-0.0031,0.0282,0.0508,0.0809,0.0991,0.0915,0.0917,0.0791,0.0788,0.0785,0.0802,0.0819,0.0818,0.0817,0.0816,0,0,-0.059,-0.0655,-0.0687,-0.0739,-0.0756,-0.0753,-0.0737,-0.0706,-0.0563,-0.0442,-0.0214,0.0144,0.045,0.0618,0.0735,0.0781,0.0723,0.0741,0.0909,0.0744,0.0737,0.0824,0.0853,0,0,0,0,0]}],[{"header":{"parameterUnit":"m.s-1","parameterCategory":2,"la1":30.2991,"la2":30.254,"lo1":-89.0895,"lo2":-89.0444,"dy":0.0017,"dx":0.0017,"nx":28,"ny":28,"refTime":"2024-07-17T03:00:00:Z","depth":"4","parameterNumber":2,"parameterNumberName":"U-component_of_CURRENTS"},"data":[0,0,0,0,0,0,0,0,0,0,0,0,0,0,0,0,0,0,0,0,0,0,0,0,0,0,0,0,0,0,0,0,0,0,0,0,0,0,0,0,0,0,0,0,0,0,0,0,0,0,0,0,0,0,0,0,0,0,-0.1231,-0.1231,0,-0.1264,-0.1265,-0.1265,-0.1297,-0.1297,-0.1298,-0.1298,-0.1381,-0.1382,-0.1384,0,0,0,0,0,0,0,0,0,0,0,0,0,-0.1161,-0.1162,-0.1231,-0.1231,-0.1232,-0.1264,-0.1265,-0.1265,-0.1297,-0.1297,-0.1298,-0.1298,-0.138,-0.1382,-0.1384,0,0,0,0,0,0,0,0,0,0,0,0,0,-0.1193,-0.1163,-0.1231,-0.1251,-0.1254,-0.1264,-0.1265,-0.1265,-0.1297,-0.1297,-0.1298,-0.1298,-0.1379,-0.1382,-0.1385,-0.139,0,0,-0.1393,-0.1394,0,0,0,0,0,0,0,0,-0.1191,-0.1195,-0.1248,-0.125,-0.1252,-0.1277,-0.127,-0.1309,-0.1297,-0.1281,-0.1298,-0.1299,-0.135,-0.1355,-0.136,-0.1394,-0.1398,-0.1393,-0.1395,-0.1396,-0.1397,0,0,0,0,0,0,0,-0.1189,-0.1194,-0.1244,-0.1248,-0.1251,-0.1247,-0.1253,-0.1277,-0.1313,-0.1282,-0.1284,-0.1288,-0.1352,-0.1357,-0.1362,-0.1399,-0.1393,-0.1396,-0.1397,-0.1398,-0.151,-0.1511,0,0,0,0,0,0,-0.1186,-0.1192,-0.1243,-0.1245,-0.1222,-0.1248,-0.1254,-0.1269,-0.1311,-0.1318,-0.1287,-0.1289,-0.1352,-0.1359,-0.1365,-0.1442,-0.1396,-0.1399,-0.14,-0.1509,-0.151,-0.1512,0,0,0,0,0,0,-0.1184,-0.119,-0.1242,-0.1218,-0.1225,-0.1249,-0.1265,-0.1269,-0.129,-0.1315,-0.1322,-0.1305,-0.1353,-0.1361,-0.1407,-0.1443,-0.14,-0.1403,-0.1507,-0.1509,-0.1511,-0.1552,0,0,0,0,0,0,-0.1182,-0.119,-0.1206,-0.1219,-0.1226,-0.1274,-0.1264,-0.1269,-0.129,-0.1293,-0.1333,-0.134,-0.1354,-0.1403,-0.141,-0.1446,-0.1405,-0.1506,-0.1508,-0.1511,-0.1549,-0.1555,-0.156,0,0,0,0,0,-0.118,-0.1189,-0.1207,-0.1213,-0.1246,-0.1275,-0.128,-0.1297,-0.129,-0.1315,-0.1334,-0.1339,-0.1424,-0.1406,-0.1414,-0.1451,-0.1504,-0.1508,-0.151,-0.1546,-0.1554,-0.156,0,0,0,0,0,0,-0.1165,-0.1194,-0.1213,-0.1232,-0.1267,-0.1281,-0.1296,-0.1303,-0.1335,-0.1343,-0.1354,-0.1364,-0.142,-0.1426,-0.1406,-0.149,-0.1466,-0.1471,-0.149,-0.1498,-0.1503,-0.1492,-0.1407,0,0,0,0,0,-0.117,-0.1192,-0.1223,-0.1246,-0.1261,-0.1282,-0.1295,-0.1316,-0.1338,-0.1352,-0.1376,-0.1403,-0.1435,-0.1458,-0.149,-0.1531,-0.1523,-0.1561,-0.1566,-0.1571,-0.1568,-0.1588,-0.1595,-0.1522,-0.1522,-0.1521,0,0,-0.117,-0.1191,-0.1204,-0.1246,-0.1268,-0.1298,-0.1292,-0.1327,-0.1352,-0.1357,-0.14,-0.1428,-0.1451,-0.1504,-0.1529,-0.1516,-0.1587,-0.1575,-0.1579,-0.1572,-0.1592,-0.1599,-0.1606,-0.1524,-0.1523,-0.1523,0,0,-0.1178,-0.1204,-0.1227,-0.1258,-0.1305,-0.1321,-0.1334,-0.1368,-0.1386,-0.1431,-0.1441,-0.1482,-0.1531,-0.1554,-0.1568,-0.162,-0.1618,-0.1643,-0.1664,-0.1685,-0.1691,-0.1696,-0.1687,-0.1692,-0.1644,-0.1644,-0.1644,0,-0.1181,-0.1212,-0.124,-0.1273,-0.1293,-0.1331,-0.1359,-0.1386,-0.1433,-0.1451,-0.1456,-0.1531,-0.1549,-0.1601,-0.1622,-0.1633,-0.1638,-0.1636,-0.1691,-0.1696,-0.1701,-0.1691,-0.1695,-0.1647,-0.1646,-0.1646,-0.1646,0,-0.1202,-0.1239,-0.1253,-0.1309,-0.1339,-0.1372,-0.1411,-0.1449,-0.147,-0.1499,-0.1562,-0.159,-0.163,-0.1652,-0.1652,-0.1705,-0.1695,-0.1696,-0.1671,-0.171,-0.1698,-0.1701,-0.165,-0.1649,-0.1648,-0.1648,0,0,-0.1169,-0.1252,-0.1261,-0.1292,-0.1358,-0.1382,-0.143,-0.148,-0.1509,-0.1569,-0.1602,-0.1661,-0.1683,-0.17,-0.1718,-0.1738,-0.1768,-0.1735,-0.1735,-0.172,-0.1803,-0.1659,-0.1648,-0.1789,-0.179,-0.1791,-0.1779,0,-0.1178,-0.1241,-0.1278,-0.1335,-0.1362,-0.1412,-0.145,-0.1508,-0.155,-0.1599,-0.1642,-0.1689,-0.17,-0.1725,-0.1752,-0.1767,-0.1781,-0.177,-0.1772,-0.1771,-0.1633,-0.1648,-0.1794,-0.1781,-0.1782,-0.1782,-0.1782,0,-0.1178,-0.1217,-0.1273,-0.1343,-0.1359,-0.1401,-0.1463,-0.1506,-0.1586,-0.1618,-0.1681,-0.1718,-0.1766,-0.1762,-0.1807,-0.1806,-0.1807,-0.1811,-0.1811,-0.1661,-0.1633,-0.1736,-0.1788,-0.1788,-0.1787,-0.1787,-0.1787,0,-0.1123,-0.1209,-0.125,-0.1276,-0.1362,-0.1393,-0.1439,-0.1517,-0.1545,-0.1633,-0.1657,-0.1738,-0.1759,-0.1797,-0.1807,-0.1818,-0.1837,-0.1847,-0.1716,-0.1706,-0.1823,-0.1817,-0.187,-0.187,-0.187,-0.187,-0.187,0,-0.1096,-0.1135,-0.1235,-0.1251,-0.1293,-0.1369,-0.1416,-0.1471,-0.1546,-0.1568,-0.1663,-0.1671,-0.1771,-0.1794,-0.1813,-0.1757,-0.1839,-0.1709,-0.1692,-0.1839,-0.1836,-0.1824,-0.1819,-0.1869,-0.1869,-0.187,-0.187,0,-0.1037,-0.1108,-0.115,-0.1238,-0.1268,-0.1298,-0.1383,-0.1411,-0.1493,-0.1519,-0.1542,-0.1627,-0.1642,-0.1713,-0.1756,-0.1724,-0.1713,-0.1674,-0.1807,-0.18,-0.1569,-0.1566,-0.1525,-0.152,-0.1515,-0.1511,-0.1508,0,-0.1017,-0.1034,-0.1116,-0.1136,-0.118,-0.1239,-0.1269,-0.1366,-0.1387,-0.1459,-0.1451,-0.1501,-0.1541,-0.148,-0.1576,-0.1595,-0.1586,-0.1572,-0.1587,-0.1545,-0.1534,-0.1538,-0.1542,-0.1501,-0.15,-0.1499,-0.1498,0,-0.0957,-0.0993,-0.1023,-0.1052,-0.1088,-0.1124,-0.1176,-0.1177,-0.1265,-0.1346,-0.1308,-0.1319,-0.1326,-0.1371,-0.1392,-0.1411,-0.1583,-0.1526,-0.1536,-0.155,-0.1516,-0.151,-0.1519,-0.1482,-0.1485,-0.1486,-0.1487,0,-0.091,-0.0911,-0.0942,-0.0961,-0.0993,-0.0994,-0.104,-0.1051,-0.1079,-0.1166,-0.1139,-0.1199,-0.1276,-0.1271,-0.1291,-0.1297,-0.1292,-0.1269,-0.1293,-0.1311,-0.1252,-0.1179,-0.1014,0,0,0,0,0,-0.0854,-0.0848,-0.0852,-0.0857,-0.0876,-0.0897,-0.0966,-0.1017,-0.1095,-0.1021,-0.1079,-0.1073,-0.1081,-0.1125,-0.1094,-0.1227,-0.132,-0.1187,-0.1311,-0.1397,-0.1415,-0.137,0,0,0,0,0,0,-0.0824,-0.083,-0.082,-0.0757,-0.0738,-0.0751,-0.0792,-0.0853,-0.0828,-0.0911,-0.0923,-0.0987,-0.1025,-0.1067,-0.1058,-0.1076,-0.113,-0.1237,-0.1234,-0.1387,-0.1403,-0.1418,-0.1377,0,0,0,0,0]},{"header":{"parameterUnit":"m.s-1","parameterCategory":2,"la1":30.2991,"la2":30.254,"lo1":-89.0895,"lo2":-89.0444,"dy":0.0017,"dx":0.0017,"nx":28,"ny":28,"refTime":"2024-07-17T03:00:00:Z","depth":"4","parameterNumber":3,"parameterNumberName":"V-component_of_CURRENTS"},"data":[0,0,0,0,0,0,0,0,0,0,0,0,0,0,0,0,0,0,0,0,0,0,0,0,0,0,0,0,0,0,0,0,0,0,0,0,0,0,0,0,0,0,0,0,0,0,0,0,0,0,0,0,0,0,0,0,0,0,-0.011,-0.011,0,-0.009,-0.0089,-0.0089,-0.0056,-0.0055,-0.0055,-0.0055,0.0037,0.0039,0.0041,0,0,0,0,0,0,0,0,0,0,0,0,0,-0.0115,-0.0115,-0.011,-0.011,-0.011,-0.009,-0.0089,-0.0089,-0.0056,-0.0055,-0.0055,-0.0054,0.0037,0.0039,0.0042,0,0,0,0,0,0,0,0,0,0,0,0,0,-0.0104,-0.0115,-0.011,-0.0093,-0.0091,-0.009,-0.0089,-0.0089,-0.0056,-0.0055,-0.0055,-0.0054,0.0036,0.0039,0.0042,0.005,0,0,0.0051,0.0053,0,0,0,0,0,0,0,0,-0.0104,-0.0103,-0.0095,-0.0094,-0.0092,-0.0077,-0.0058,-0.004,-0.0056,-0.0067,-0.0055,-0.0054,0.0004,0.001,0.0015,0.0054,0.0058,0.0052,0.0054,0.0055,0.0056,0,0,0,0,0,0,0,-0.0105,-0.0104,-0.0099,-0.0095,-0.0094,-0.0085,-0.0082,-0.0054,-0.0032,-0.0066,-0.0064,-0.0066,0.0006,0.0011,0.0017,0.0059,0.0052,0.0054,0.0056,0.0058,0.0103,0.0103,0,0,0,0,0,0,-0.0113,-0.0105,-0.01,-0.0099,-0.01,-0.0085,-0.0082,-0.008,-0.0034,-0.0027,-0.0066,-0.0064,0.0006,0.0013,0.0021,0.0038,0.0055,0.0058,0.006,0.0104,0.0103,0.0102,0,0,0,0,0,0,-0.0113,-0.0113,-0.0101,-0.0103,-0.0102,-0.0086,-0.0084,-0.008,-0.008,-0.0035,-0.0027,-0.0071,0.0006,0.0016,0.0034,0.0042,0.0059,0.0062,0.0105,0.0104,0.0103,0.007,0,0,0,0,0,0,-0.0114,-0.0113,-0.0118,-0.0104,-0.0102,-0.0105,-0.0085,-0.008,-0.0083,-0.008,-0.0036,-0.0027,0.0008,0.0028,0.0037,0.0047,0.0065,0.0106,0.0104,0.0103,0.0072,0.0068,0.0065,0,0,0,0,0,-0.0114,-0.0123,-0.0118,-0.0118,-0.0108,-0.0105,-0.0103,-0.0089,-0.0084,-0.0086,-0.0063,-0.0028,0.0027,0.003,0.004,0.0051,0.0106,0.0105,0.0103,0.0074,0.0069,0.0065,0,0,0,0,0,0,-0.0127,-0.012,-0.0115,-0.0121,-0.0117,-0.0101,-0.0104,-0.0098,-0.0083,-0.0077,-0.0038,-0.0028,-0.0007,0.0017,0.0019,0.0058,0.0073,0.0073,0.0047,0.0043,0.004,0.0035,0.0067,0,0,0,0,0,-0.0134,-0.0137,-0.013,-0.0134,-0.0134,-0.0123,-0.0122,-0.0111,-0.0096,-0.0089,-0.0063,-0.0034,-0.0006,0.0013,0.0039,0.0058,0.0104,0.0071,0.0067,0.0064,0.0065,0.0162,0.0168,0.0098,0.0098,0.0098,0,0,-0.0142,-0.0138,-0.0141,-0.0138,-0.0132,-0.0141,-0.012,-0.0119,-0.0124,-0.008,-0.0078,-0.0046,-0.0007,0.0016,0.0028,0.004,0.0099,0.0062,0.0059,0.0062,0.0161,0.0168,0.0175,0.0097,0.0097,0.0097,0,0,-0.016,-0.0155,-0.0165,-0.0165,-0.0161,-0.0154,-0.016,-0.0149,-0.014,-0.0136,-0.0103,-0.0071,-0.0041,-0.0001,0.002,0.001,0.0074,0.0016,0.0003,0.0097,0.0105,0.0112,0.0145,0.0156,0.0019,0.0019,0.0019,0,-0.0168,-0.0182,-0.0168,-0.0179,-0.0189,-0.0167,-0.0186,-0.0174,-0.0159,-0.015,-0.0141,-0.0079,-0.0046,-0.0001,-0.0007,0.0006,0.0051,0.002,0.0096,0.0104,0.0113,0.0145,0.0158,0.0017,0.0018,0.0018,0.0018,0,-0.0195,-0.0208,-0.0214,-0.0223,-0.0231,-0.024,-0.0229,-0.0226,-0.0216,-0.0197,-0.0159,-0.0106,-0.0067,-0.0049,-0.0032,0.0036,0.0043,0.008,0.0113,0.0118,0.0151,0.0164,0.0015,0.0015,0.0016,0.0016,0,0,-0.0205,-0.023,-0.0232,-0.0254,-0.0257,-0.0268,-0.0271,-0.0267,-0.027,-0.0225,-0.0209,-0.015,-0.0109,-0.0083,-0.0038,0.0041,0.0122,0.0079,0.0085,0.012,0.0296,0.027,0.0282,0.0188,0.0191,0.0193,0.0284,0,-0.0231,-0.0269,-0.0273,-0.0317,-0.034,-0.033,-0.0346,-0.0333,-0.0309,-0.0283,-0.0198,-0.0167,-0.0124,-0.01,-0.0011,0.0094,0.0161,0.0091,0.0278,0.0282,0.0268,0.0299,0.0202,0.0294,0.0297,0.03,0.0301,0,-0.0256,-0.0281,-0.033,-0.0377,-0.0387,-0.0411,-0.0427,-0.0432,-0.038,-0.0359,-0.0285,-0.0222,-0.0114,-0.0075,0.0126,0.0084,0.0177,0.0262,0.0269,0.027,0.0283,0.0296,0.0326,0.0324,0.0322,0.0321,0.0319,0,-0.0277,-0.0323,-0.0369,-0.0383,-0.0426,-0.0449,-0.0468,-0.0451,-0.0458,-0.0392,-0.0379,-0.0238,-0.0171,-0.0004,0.016,0.0155,0.0383,0.0402,0.0459,0.0456,0.0466,0.0458,0.0543,0.0543,0.0543,0.0543,0.0542,0,-0.0303,-0.034,-0.0386,-0.0411,-0.0474,-0.0488,-0.0532,-0.0529,-0.0511,-0.0507,-0.0414,-0.0363,-0.0141,0.001,0.0162,0.035,0.0391,0.0461,0.0495,0.0441,0.043,0.0474,0.0464,0.0546,0.0545,0.0545,0.0544,0,-0.0316,-0.0344,-0.0403,-0.0462,-0.0486,-0.0528,-0.0586,-0.0605,-0.0595,-0.0579,-0.0559,-0.0431,-0.0227,-0.0021,0.0246,0.0333,0.0525,0.0574,0.0465,0.049,0.0523,0.0511,0.0645,0.0645,0.0645,0.0645,0.0646,0,-0.0328,-0.0357,-0.0439,-0.0481,-0.0512,-0.0574,-0.0615,-0.0637,-0.0648,-0.0612,-0.0593,-0.0426,-0.0311,0.0041,0.0248,0.0529,0.0561,0.061,0.0598,0.0522,0.0542,0.0529,0.0517,0.0646,0.0646,0.0646,0.0646,0,-0.035,-0.0377,-0.0425,-0.0507,-0.0565,-0.0633,-0.0684,-0.0699,-0.0707,-0.0701,-0.059,-0.0429,-0.0212,0.0056,0.0266,0.0466,0.0561,0.0613,0.0613,0.0603,0.0525,0.0542,0.0529,0.0647,0.0647,0.0647,0.0647,0,-0.0362,-0.0399,-0.046,-0.053,-0.0606,-0.0666,-0.0696,-0.0693,-0.0702,-0.0653,-0.0605,-0.039,-0.0256,0.0023,0.0226,0.0416,0.0454,0.047,0.0479,0.048,0.0405,0.0281,0.0367,0,0,0,0,0,-0.0371,-0.0413,-0.0482,-0.0564,-0.0635,-0.0677,-0.0732,-0.0747,-0.0746,-0.0665,-0.0636,-0.0426,-0.0135,-0.0006,0.019,0.0218,0.0471,0.0442,0.0491,0.0651,0.065,0.0589,0,0,0,0,0,0,-0.0383,-0.0441,-0.0478,-0.0571,-0.0625,-0.0705,-0.0736,-0.0738,-0.0682,-0.0649,-0.0464,-0.0415,-0.0095,-0.0217,0.0192,0.0243,0.0284,0.0582,0.0584,0.0651,0.065,0.065,0.0587,0,0,0,0,0]}]]